Skip Page Navigation
NASA JPL Caltech
NASA Logo - Jet Propulsion Laboratory + View the NASA Portal
+ Center for Near-Earth Object Studies
JPL Home Earth Solar System Stars & Galaxies Technology
JPL Solar System Dynamics
BODIES ORBITS EPHEMERIDES TOOLS PHYSICAL DATA DISCOVERY FAQ SITE MAP
JPL Small-Body Database Browser
Search: [ help ]  
187585 (2006 WC82)
Classification: Main-belt Asteroid          SPK-ID: 2187585
Ephemeris | Orbit Diagram | Orbital Elements | Mission Design | Physical Parameters | Discovery Circumstances ]

[ show orbit diagram ]
Orbital Elements at Epoch 2459200.5 (2020-Dec-17.0) TDB
Reference: JPL 17 (heliocentric ecliptic J2000)
 Element Value Uncertainty (1-sigma)   Units 
e .09729373436244845 4.0716e-08  
a 2.616226574196243 1.7967e-08 au
q 2.361684120854415 1.0439e-07 au
i 3.539718962146321 5.4581e-06 deg
node 110.2789695174297 8.7031e-05 deg
peri 320.8118652557305 9.7179e-05 deg
M 113.87725928441 4.0953e-05 deg
tp 2458711.570815420972
(2019-Aug-16.07081542)
0.00017474 TDB
period 1545.651059346725
4.23
1.5922e-05
4.359e-08
d
yr
n .2329115603570674 2.3993e-09 deg/d
Q 2.870769027538071 1.9715e-08 au
  Orbit Determination Parameters
   # obs. used (total)      398  
   data-arc span      6315 days (17.29 yr)  
   first obs. used      2003-01-04  
   last obs. used      2020-04-19  
   planetary ephem.      DE441  
   SB-pert. ephem.      SB441-N16  
   condition code      0  
   norm. resid. RMS      .61369  
   source      ORB  
   producer      Otto Matic  
   solution date      2021-Apr-13 21:56:02  

Additional Information
 Earth MOID = 1.37704 au 
 Jupiter MOID = 2.34903 au 
 T_jup = 3.398 
[ show covariance matrix ]

Ephemeris | Orbit Diagram | Orbital Elements | Mission Design | Physical Parameters | Discovery Circumstances ]

Physical Parameter Table
Parameter Symbol Value Units Sigma Reference Notes
absolute magnitude H 16.45   n/a E2021B55  

187585 (2006 WC82)          Discovered 2006-Nov-18 by Spacewatch at Kitt Peak
Reference: 20080520/Numbers.arcLast Updated: 2008-05-22

Alternate Designations
 2006 WC82 = 2003 AW25 = 2005 NG81 
Ephemeris | Orbit Diagram | Orbital Elements | Mission Design | Physical Parameters | Discovery Circumstances ]
ABOUT SSD CREDITS/AWARDS PRIVACY/COPYRIGHT GLOSSARY LINKS
FirstGov 2021-Apr-22 21:37 UT
(server date/time)  
NASA Home Page
Site Manager:   Ryan S. Park
Webmaster  Alan B. Chamberlin